Puyallup, WA
on Wednesday, January 16, 2013

Wednesday
Previous Day Next Day
Daily Summary
 ActualAverage (KSEA)Record (KSEA)
Temperature
Mean Temperature °F 42°F  
Max Temperature 41°F 47°F 55°F (2011)
Min Temperature 19°F 37°F 13°F (1950)
Degree Days
Heating Degree Days 35 23  
Month to date heating degree days 376  
Since 1 July heating degree days 2314  
Cooling Degree Days 0 0  
Month to date cooling degree days 0  
Year to date cooling degree days 0  
Moisture
Dew Point 27°F   
Average Humidity 95    
Maximum Humidity 100    
Minimum Humidity 70    
Precipitation
Precipitation 0.09 in 0.20 in 1.78 in (1958)
Month to date precipitation 3.03  
Year to date precipitation 3.03  
Snow
Snow 0.00 in in 3.50 in (1954)
Month to date snowfall  
Since 1 July snowfall  
Snow Depth in   
Wind
Wind Speed 0 mph   
Max Wind Speed 5 mph   
Max Gust Speed mph   
Visibility 8 miles   
Events Fog , Snow   

Key: T is trace of precipitation, MM is missing value
Source: NWS Daily Summary
Time(PST)TemperatureDew PointHumidity Pressure Visibility Wind DirectionWind SpeedGust SpeedPrecipitationEvents Conditions
12:15 AM 23.0°F 23.0°F 100% 30.66 in 7.0 miles Calm Calm - N/A   Clear
12:35 AM 24.8°F 24.8°F 100% 30.65 in 8.0 miles Calm Calm - N/A   Clear
12:55 AM 23.0°F 23.0°F 100% 30.66 in 8.0 miles Calm Calm - N/A   Clear
1:15 AM 23.0°F 23.0°F 100% 30.66 in 8.0 miles Calm Calm - N/A   Clear
1:35 AM 24.8°F 24.8°F 100% 30.65 in 9.0 miles Calm Calm - N/A   Clear
1:55 AM 23.0°F 23.0°F 100% 30.66 in 9.0 miles Calm Calm - N/A   Clear
2:15 AM 23.0°F 23.0°F 100% 30.66 in 10.0 miles Calm Calm - N/A   Clear
2:35 AM 23.0°F 23.0°F 100% 30.66 in 10.0 miles Calm Calm - N/A   Clear
2:55 AM 24.8°F 24.8°F 100% 30.65 in 10.0 miles Calm Calm - N/A   Clear
3:15 AM 23.0°F 23.0°F 100% 30.66 in 9.0 miles Calm Calm - N/A   Clear
3:35 AM 23.0°F 23.0°F 100% 30.65 in 10.0 miles Calm Calm - N/A   Clear
3:55 AM 23.0°F 23.0°F 100% 30.65 in 9.0 miles Calm Calm - N/A   Clear
4:15 AM 23.0°F 23.0°F 100% 30.65 in 10.0 miles Calm Calm - N/A   Clear
4:35 AM 23.0°F 21.2°F 93% 30.65 in 10.0 miles Calm Calm - N/A   Clear
4:55 AM 21.2°F 21.2°F 100% 30.64 in 10.0 miles Calm Calm - N/A   Clear
5:15 AM 21.2°F 21.2°F 100% 30.64 in 10.0 miles Calm Calm - N/A   Clear
5:35 AM 23.0°F 23.0°F 100% 30.63 in 10.0 miles Calm Calm - N/A   Clear
5:55 AM 21.2°F 21.2°F 100% 30.63 in 10.0 miles Calm Calm - N/A   Clear
6:15 AM 21.2°F 21.2°F 100% 30.63 in 10.0 miles Calm Calm - N/A   Clear
6:35 AM 19.4°F 19.4°F 100% 30.62 in 10.0 miles Calm Calm - N/A   Clear
6:55 AM 21.2°F 21.2°F 100% 30.62 in 10.0 miles Calm Calm - N/A   Clear
7:15 AM 21.2°F 21.2°F 100% 30.62 in 10.0 miles Calm Calm - N/A   Clear
7:35 AM 19.4°F 19.4°F 100% 30.62 in 10.0 miles Calm Calm - N/A   Clear
7:55 AM 21.2°F 21.2°F 100% 30.62 in 10.0 miles Calm Calm - N/A   Mostly Cloudy
8:15 AM 23.0°F 23.0°F 100% 30.63 in 10.0 miles Calm Calm - N/A   Overcast
8:35 AM 24.8°F 24.8°F 100% 30.63 in 1.0 miles Calm Calm - N/A   Overcast
8:55 AM 26.6°F 26.6°F 100% 30.63 in 0.2 miles Calm Calm - N/A Fog Light Freezing Fog
9:15 AM 26.6°F 26.6°F 100% 30.63 in 0.2 miles Calm Calm - N/A Fog Light Freezing Fog
9:35 AM 28.4°F 28.4°F 100% 30.63 in 0.2 miles Calm Calm - N/A Fog Light Freezing Fog
9:55 AM 30.2°F 30.2°F 100% 30.62 in 1.5 miles Calm Calm - N/A   Scattered Clouds
10:15 AM 32.0°F 32.0°F 100% 30.62 in 0.5 miles Calm Calm - N/A Fog Light Freezing Fog
10:35 AM 32.0°F 32.0°F 100% 30.61 in 6.0 miles Calm Calm - N/A Snow Light Snow
10:55 AM 33.8°F 33.8°F 100% 30.61 in 8.0 miles Calm Calm - N/A   Clear
11:15 AM 35.6°F 33.8°F 93% 30.61 in 8.0 miles Calm Calm - N/A Snow Light Snow
11:35 AM 35.6°F 33.8°F 93% 30.60 in 10.0 miles NNW 3.5 mph - N/A   Clear
11:55 AM 35.6°F 32.0°F 87% 30.60 in 10.0 miles NNW 3.5 mph - N/A   Clear
12:15 PM 37.4°F 32.0°F 81% 30.60 in 10.0 miles WNW 3.5 mph - N/A   Clear
12:35 PM 39.2°F 32.0°F 75% 30.59 in 10.0 miles Calm Calm - N/A   Clear
12:55 PM 39.2°F 32.0°F 75% 30.59 in 10.0 miles NW 4.6 mph - N/A   Clear
1:15 PM - - N/A% - - North - - N/A   Unknown
1:35 PM 41.0°F 32.0°F 70% 30.57 in 10.0 miles NNW 4.6 mph - N/A   Unknown
1:55 PM 41.0°F 32.0°F 70% 30.57 in 2.0 miles Calm Calm - 0.05 in   Haze
2:15 PM 41.0°F 32.0°F 70% 30.56 in 10.0 miles Calm Calm - 0.04 in   Clear
2:35 PM 41.0°F 32.0°F 70% 30.56 in 10.0 miles Calm Calm - 0.04 in   Clear
2:55 PM 41.0°F 32.0°F 70% 30.55 in 10.0 miles NNW 3.5 mph - 0.04 in   Clear
3:15 PM 41.0°F 32.0°F 70% 30.56 in 10.0 miles NNW 3.5 mph - N/A   Clear
3:55 PM 39.2°F 32.0°F 75% 30.55 in 10.0 miles Calm Calm - N/A   Clear
4:15 PM 39.2°F 32.0°F 75% 30.55 in 10.0 miles Calm Calm - N/A   Clear
4:35 PM 37.4°F 32.0°F 81% 30.55 in 10.0 miles Calm Calm - N/A   Clear
4:55 PM 33.8°F 32.0°F 93% 30.54 in 10.0 miles Calm Calm - N/A   Clear
5:15 PM 32.0°F 30.2°F 93% 30.54 in 10.0 miles Calm Calm - N/A   Clear
5:35 PM 32.0°F 30.2°F 93% 30.54 in 10.0 miles Calm Calm - N/A   Clear
5:55 PM 30.2°F 30.2°F 100% 30.54 in 10.0 miles Calm Calm - N/A   Clear
6:15 PM 30.2°F 30.2°F 100% 30.55 in 10.0 miles Calm Calm - N/A   Clear
6:35 PM 30.2°F 30.2°F 100% 30.54 in 8.0 miles Calm Calm - N/A   Clear
6:55 PM 28.4°F 28.4°F 100% 30.55 in 7.0 miles Calm Calm - N/A   Clear
7:15 PM 28.4°F 28.4°F 100% 30.54 in 8.0 miles Calm Calm - N/A   Clear
7:35 PM 28.4°F 28.4°F 100% 30.54 in 6.0 miles Calm Calm - N/A   Clear
7:55 PM 26.6°F 26.6°F 100% 30.53 in 4.0 miles Calm Calm - N/A   Clear
8:15 PM 26.6°F 26.6°F 100% 30.53 in 1.2 miles Calm Calm - N/A   Clear
8:35 PM 26.6°F 26.6°F 100% 30.52 in 5.0 miles Calm Calm - N/A   Clear
8:55 PM 26.6°F 26.6°F 100% 30.52 in 3.0 miles Calm Calm - N/A   Clear
9:15 PM 26.6°F 26.6°F 100% 30.52 in 6.0 miles Calm Calm - N/A   Clear
9:35 PM 26.6°F 26.6°F 100% 30.51 in 7.0 miles Calm Calm - N/A   Clear
9:55 PM 26.6°F 26.6°F 100% 30.51 in 6.0 miles Calm Calm - N/A   Clear
10:15 PM 26.6°F 26.6°F 100% 30.51 in 5.0 miles Calm Calm - N/A   Clear
10:35 PM 24.8°F 24.8°F 100% 30.50 in 5.0 miles Calm Calm - N/A   Clear
10:55 PM 24.8°F 24.8°F 100% 30.50 in 4.0 miles Calm Calm - N/A   Clear
11:15 PM 24.8°F 24.8°F 100% 30.51 in 5.0 miles Calm Calm - N/A   Clear
11:35 PM 26.6°F 26.6°F 100% 30.50 in 6.0 miles North - - N/A   Clear
Moon Phase
Jan. 16 Jan. 18 Jan. 26 Feb. 03 Feb. 10
Sunrise:07:49 AM (PST) Moon Rise:10:03 AM (PST)1/16
Sunset:04:48 PM (PST) Moon Set:11:13 PM (PST)1/16

Copyright © 2014 The Weather Underground, Inc.